Location: Olsztyn
(53.7767°N, 20.4765°E)
Time: 18:09:00
(UTC+02:00)

A-11 Canister half - Pass Details

Date: 23 January 2022
Orbit: 1513 x 1686 km, 47.2° (Epoch: 24 May)

Event Time Altitude Azimuth Distance (km) Brightness Sun altitude
Rises 16:59:38 0° 220° (SW) 4,745 12.8 -8.4°
Reaches altitude 10° 17:03:00 10° 213° (SSW) 3,740 11.9 -8.8°
Maximum altitude 17:11:23 38° 150° (SSE) 2,179 9.7 -10.0°
Enters shadow 17:19:08 12° 88° (E) 3,542 10.3 -11.1°
